Regional Weather Roundup
Issued by NWS

Home | Current Version | Previous Version | Text Only | Print | Product List | Glossary On
Versions: 1 2 3 4 5 6 7 8 9 10 11 12 13 14 15 16 17 18 19 20 21 22 23 24 25 26 27 28 29 30 31 32 33 34 35 36 37 38 39 40 41 42 43 44 45 46 47 48 49 50
000
ASHW40 PHFO 020543
RWRHI

WEATHER ROUNDUP FOR HAWAII
NATIONAL WEATHER SERVICE HONOLULU HI
700 PM HST WED JUL 01 2015

THIS IS AN AUTOMATED REPORT THAT HAS NOT BEEN QUALITY CONTROLLED.

NOTE..."FAIR" INDICATES FEW OR NO CLOUDS BELOW 12,000 FEET WITH NO
SIGNIFICANT WEATHER AND/OR OBSTRUCTIONS TO VISIBILITY.

* - THESE SITES REPORT LIMITED FIELDS

HIZ001>004-020600-
KAUAI-NIIHAU-

CITY           SKY/WX    TMP DP  RH WIND       PRES   REMARKS
LIHUE APT      PTCLDY    81  69  67 N9        29.87R
PORT ALLEN*    NOT AVBL
POIPU*           N/A     81 N/A N/A SW6         N/A
PRINCEVILLE*     N/A     79 N/A N/A MISG        N/A
KOKOLE POINT*  NOT AVBL
MOLOAA DAIRY*  NOT AVBL
WAIMEA HTS*      N/A     77  68  73 SW2G9       N/A
PUU OPAE*        N/A     70  64  83 SW2G8       N/A
PUU LUA*       NOT AVBL
MAKAHA RIDGE*    N/A     73  63  68 CALM        N/A
$$

HIZ005>011-020600-
OAHU-

CITY           SKY/WX    TMP DP  RH WIND       PRES   REMARKS
HONOLULU       PTCLDY    83  67  58 S6        29.87R
KALAELOA       CLEAR     80  66  62 W8        29.88R
KANEOHE MCB    CLEAR     81  70  69 N5        29.85R
WHEELER FIELD  FAIR      79  68  69 NW7       29.87R
BELLOWS*         N/A    N/A N/A N/A NE5         N/A
KAHUKU*          N/A    N/A N/A N/A E5          N/A
WHEELER*       NOT AVBL
WAIANAE HARBOR NOT AVBL
DILLINGHAM*      N/A     81  70  69 MISG        N/A
KAHUKU TRN*      N/A     81  68  65 E3G9        N/A
KAWAILOA*        N/A     75  64  69 NE3G9       N/A
KII*             N/A     82  70  65 E5          N/A
MAKUA RANGE*     N/A     81  68  65 E6G12       N/A
OAHU FOREST NW   N/A     68  63  83 CALM        N/A
SCHOFIELD BRK*   N/A     79  72  78 MISG        N/A
SCHOFIELD S*   NOT AVBL
WAIANAE VLY*     N/A     90  81  74 MISG        N/A  HX 108
KUAOKALA*        N/A     75  68  78 E8          N/A
HONOULIUULI*   NOT AVBL
MOKUOLOE IS*     N/A    N/A N/A N/A MISG        N/A
PALEHUA*         N/A     72  63  73 NE2         N/A
WAIAWA PHB*    NOT AVBL
$$

HIZ012>013-020600-
MOLOKAI-

CITY           SKY/WX    TMP DP  RH WIND       PRES   REMARKS
MOLOKAI AIRPT  CLEAR     80  72  76 N7        29.89R
KALAUPAPA      NOT AVBL
MAKAPULAPAI*     N/A     81  73  78 E10         N/A
MOLOKAI 1*       N/A     79  77  94 CALM        N/A
PUU ALII*        N/A     67  65  93 CALM        N/A
$$

HIZ016-020600-
KAHOOLAWE-

CITY           SKY/WX    TMP DP  RH WIND       PRES   REMARKS
KAHOOLAWE*     NOT AVBL
HAKIOAWA*        N/A     75  69  80 MISG      30.32
HONOKANAIA*      N/A     81  70  69 NE6G16    29.89R
KANELOA*         N/A     79  72  78 E14G23    29.93F
KEALIALALO*      N/A     79  70  73 E9G18     29.89R
LUA MAKIKA*    NOT AVBL
$$

HIZ014>015-020600-
LANAI-

CITY           SKY/WX    TMP DP  RH WIND       PRES   REMARKS
LANAI CITY     MOCLDY    73  68  83 W3        29.95R
LANAI 1*         N/A     75  72  88 NE9         N/A
$$

HIZ017>028-020600-
MAUI-

CITY           SKY/WX    TMP DP  RH WIND       PRES   REMARKS
KAHULUI        PTCLDY    83  72  69 CALM      29.86R
KAPALUA-W MAUI NOT AVBL
HANA AIRPORT   CLOUDY    77  73  88 SE6       29.92R
HANA*            N/A     79 N/A N/A SE5G10      N/A
HALEAKALA SUMM   N/A     48  28  46 S7          N/A
MAALAEA BAY*   NOT AVBL
HALEAKALA*     NOT AVBL
KAUPO GAP*       N/A     68  68 100 CALM        N/A
KULA 1*          N/A     58  56  94 NW3         N/A
$$

HIZ023>026-020600-
BIG ISLAND OF HAWAII COAST AND LOWER SLOPES-

CITY           SKY/WX    TMP DP  RH WIND       PRES   REMARKS
KAILUA KONA    CLEAR     83  73  72 S10       29.85R
HILO           CLOUDY    79  73  82 S5        29.89R
HONOKAA*       NOT AVBL
KAWAIHAE MWT*    N/A     84 N/A N/A SW5         N/A
KAWAIHAE*        N/A     82 N/A N/A CALM        N/A
SOUTH POINT*     N/A     77 N/A N/A NE13G20     N/A
UPOLU AIRPORT*   N/A    N/A N/A N/A E15G22      N/A
KAMUELA*       CLOUDY    72  66  83 NE3       30.01R
HAKALAU*         N/A     60  59  95 S3          N/A
KALOKO-HONOKO*   N/A     81  72  74 S5        29.86R
PALI 2*          N/A     70  66  88 E6G12       N/A
KEALAKOMO*       N/A     81  75  83 NE9G15      N/A
KAUPULEHU*       N/A     79  68  69 W7G13       N/A
KAPAPALA*        N/A     72  71  96 E3          N/A
LOWER KAHUKU*    N/A     66  66 100 N1          N/A
PUHE CS*         N/A     82  72  69 S2          N/A
PUHO CS*         N/A     81  72  74 SW1         N/A
PTA KEAMUKU*     N/A     72  63  73 CALM        N/A
WAIKOLOA*        N/A     81  66  61 W6G12       N/A
$$

HIZ027>028-020600-
BIG ISLAND OF HAWAII INTERIOR AND SUMMMITS-

CITY           SKY/WX    TMP DP  RH WIND       PRES   REMARKS
BRADSHAW FIELD MOCLDY    61  59  94 W5        30.25S
MK VISITOR CEN   N/A      0   0 100 MISG        N/A
MAUNA KEA*       N/A     39  27  60 NW5         N/A
MAUNA LOA*       N/A     48  43  81 MISG        N/A
MAUNA LOA 1*   NOT AVBL
PTA KIPUKA*      N/A     64  61  88 NW3G9       N/A
PTA RANGE 17*    N/A     64  61  88 NW6         N/A
PTA WEST*        N/A     73  68  83 NW7G13      N/A
NENE CABIN*      N/A     57 N/A N/A E5          N/A
AHUMOA*          N/A     58  58  99 N5          N/A
PTA PORTABLE*  NOT AVBL
PUU MALI*        N/A     59  59 100 NE6         N/A
$$

HIC003-020600-
NORTHWEST ISLANDS-

CITY           SKY/WX    TMP DP  RH WIND       PRES   REMARKS
MIDWAY ISLAND  SUNNY     81  72  74 N13       30.02S
MIDWAY NOS*    NOT AVBL
FRENCH FRIGATE NOT AVBL
$$

PHZ110>124-180-020600-
BUOY REPORTS

STATION/POSITION TIME  TEMP    WIND        PRES    WAVE   SWELL
                       AIR SEA DIR/SP/G            HT/PER HT/DIR
                 (UTC) (F)     (DEG/KT/KT) (MB)    (FT/S) (FT/D)
BUOY 51001       NOT AVBL
BUOY 51101       0500   77 80  250/ 10/ 10 1009.4R   6/ 9   5/ 90
BUOY 51100       NOT AVBL
BUOY 51002       0500   80 81   80/ 14/ 17 1010.2R   6/ 9   5/100
BUOY 51003       0500   81 82   70/  6/  8 1011.3R   5/14   5
BUOY 51004       0352   80 80   80/ 16/ 17 1011.2R   7/ 9   5/100
BARBERS PT BUOY  NOT AVBL
WAIMEA BAY BUOY  0500      80                N/A     2/ 8
KAILUA BAY BUOY  0500      80                N/A     3/14   2/140
LANAI BUOY       NOT AVBL
BARBERS PT 2     0500      82                N/A     4/14   3/170
PAUWELA MAUI     0500      79                N/A     4/ 9
HILO             0500      80                N/A     5/ 9   2/120
KANEOHE BAY BUOY 0500      80                N/A     3/ 8
HANALEI KAUAI    0500      81                N/A     3/ 9   2/260
KAHULUI HARBOR   0500   80 82  350/  6/  9 1011.2R
HONOLULU HARBOR  0500   80 82  230/  4/  5 1011.8R
KILO NALU        NOT AVBL
HILO HARBOR      0500   80 79  180/  4/  6 1012.2R
MOKUOLOE         0500   81 84  360/  3/  3 1011.7S
NAWILIWILI       0500   80 81  330/  6/  8 1011.4R
WHOTS BUOY       NOT AVBL
BUOY 51028       NOT AVBL
$$

......................KEY........................................
  SKY/WX - SKY CONDITIONS/PRESENT WEATHER
  TMP    - TEMPERATURE IN FAHRENHEIT
  DWPT   - DEWPOINT IN FAHRENHEIT
  RH     - RELATIVE HUMIDITY IN PERCENT
  WIND   - DIRECTION AND SPEED /MPH FOR ISLANDS...KTS FOR BUOYS/
  PRES   - MEAN SEA LEVEL PRESSURE IN INCHES OF HG
  VSB    - VISIBILITY IN MILES
  HX     - HEAT INDEX
  WCI    - WIND CHILL INDEX
  VRB    - VARIABLE WIND DIRECTION
  N/A    - NOT AVAILABLE



USA.gov is the U.S. government's official web portal to all federal, state and local government web resources and services.